N4MRV-1 Weather Reports


time (UTC)temp
C
wind
direction
speed
KPH
gust
KPH
rain 1hr
cm
rain 24hr
cm
rain mn
cm
humidity
%
barometer
mb
20260509010036 16 0.0 0.0 0.00 0.00 0.00 51 1013.7
20260509004516 16 0.0 1.6 0.00 0.00 0.00 48 1013.7
20260509003016 17 0.0 0.0 0.00 0.00 0.00 46 1013.6
20260509001516 17 0.0 1.6 0.00 0.00 0.00 44 1013.5
20260509000016 18 0.0 1.6 0.00 0.00 0.00 43 1013.4
20260508234536 19 0.0 1.6 0.00 0.00 0.00 41 1013.1
20260508233016 20 0.0 6.4 0.00 0.00 0.00 39 1013.0
20260508231516 20 158 1.6 8.0 0.00 0.00 0.00 37 1012.9
20260508230016 21 0.0 3.2 0.00 0.00 0.00 36 1012.9
20260508224516 21 158 1.6 6.4 0.00 0.00 0.00 34 1012.9
20260508223016 22 293 1.6 4.8 0.00 0.00 0.00 33 1013.0
20260508221516 22 293 1.6 4.8 0.00 0.00 0.00 34 1013.2
20260508220016 21 135 1.6 8.0 0.00 0.00 0.00 36 1013.2
20260508214516 21 315 1.6 12.9 0.00 0.00 0.00 35 1013.3
20260508213036 21 293 1.6 6.4 0.00 0.00 0.00 34 1013.3
20260508211536 21 203 1.6 6.4 0.00 0.00 0.00 35 1013.3
20260508210036 21 158 1.6 4.8 0.00 0.00 0.00 35 1013.4
20260508204536 21 315 3.2 12.9 0.00 0.00 0.00 35 1013.5
20260508203015 21 315 1.6 6.4 0.00 0.00 0.00 36 1013.7
20260508201516 21 45 1.6 4.8 0.00 0.03 0.00 36 1013.7
20260508200015 21 225 3.2 6.4 0.00 0.05 0.00 36 1013.9
20260508194536 21 180 1.6 12.9 0.00 0.08 0.00 34 1014.1
20260508193015 21 315 3.2 11.3 0.00 0.08 0.00 37 1014.3
20260508191516 21 315 3.2 9.7 0.00 0.08 0.00 40 1014.7
20260508190015 20 338 1.6 6.4 0.00 0.08 0.00 35 1014.7
20260508184535 20 315 3.2 6.4 0.00 0.08 0.00 37 1014.9
20260508183015 20 270 3.2 9.7 0.00 0.08 0.00 37 1015.2
20260508181515 19 293 1.6 9.7 0.00 0.08 0.00 43 1015.3
20260508180015 19 293 1.6 9.7 0.00 0.08 0.00 37 1015.5
20260508174516 19 315 1.6 6.4 0.00 0.08 0.00 39 1015.7
20260508173035 19 113 3.2 12.9 0.00 0.08 0.00 39 1015.7
20260508171515 19 315 1.6 4.8 0.00 0.08 0.00 39 1016.0
20260508170015 19 293 1.6 9.7 0.00 0.08 0.00 39 1016.2
20260508164517 19 135 1.6 4.8 0.00 0.08 0.00 37 1016.4
20260508163017 19 45 1.6 6.4 0.00 0.08 0.00 37 1016.7
20260508161517 20 158 1.6 6.4 0.00 0.08 0.00 38 1016.9
20260508160017 19 338 1.6 6.4 0.00 0.08 0.00 39 1017.1
20260508154517 19 338 1.6 6.4 0.00 0.08 0.00 39 1017.3
20260508153017 18 45 1.6 6.4 0.00 0.08 0.00 40 1017.4
20260508151557 17 338 1.6 4.8 0.00 0.08 0.00 43 1017.5
20260508150017 16 338 1.6 6.4 0.00 0.10 0.00 43 1017.7
20260508144537 15 113 1.6 4.8 0.00 0.10 0.00 48 1017.6
20260508143017 14 315 1.6 6.4 0.00 0.10 0.00 54 1017.5
20260508141517 13 0 1.6 4.8 0.00 0.10 0.00 57 1017.6
20260508140017 13 0 1.6 4.8 0.00 0.10 0.00 61 1017.7
20260508134517 12 0 1.6 6.4 0.00 0.10 0.00 66 1017.7
20260508133017 11 0 1.6 4.8 0.00 0.10 0.00 73 1017.8
20260508131517 10 0.0 4.8 0.00 0.10 0.00 82 1017.7
20260508130017 9 0.0 4.8 0.00 0.10 0.00 93 1017.6
20260508124517 8 0.0 4.8 0.00 0.10 0.00 96 1017.7
20260508123016 8 0.0 4.8 0.00 0.10 0.00 96 1017.6
20260508121516 8 0.0 1.6 0.00 0.10 0.00 96 1017.4
20260508120017 7 0.0 0.0 0.00 0.10 0.00 95 1017.0
20260508114516 6 0.0 1.6 0.00 0.10 0.00 95 1016.8
20260508113016 6 0.0 0.0 0.00 0.10 0.00 95 1016.7
20260508111517 6 0.0 0.0 0.00 0.10 0.00 94 1016.4
20260508110016 6 0.0 0.0 0.00 0.10 0.00 94 1016.1
20260508104516 6 0.0 0.0 0.00 0.10 0.00 94 1015.9
20260508103017 6 0.0 0.0 0.00 0.10 0.00 94 1015.7
20260508101516 6 0.0 0.0 0.00 0.10 0.00 94 1015.6
20260508100036 6 0.0 0.0 0.00 0.10 0.00 94 1015.4
20260508094516 6 0.0 0.0 0.00 0.10 0.00 94 1015.2
20260508093016 6 0.0 0.0 0.00 0.10 0.00 94 1015.1
20260508091516 7 0.0 0.0 0.00 0.10 0.00 94 1015.0
20260508090016 7 0.0 1.6 0.00 0.10 0.00 95 1014.8
20260508084516 7 0.0 3.2 0.00 0.10 0.00 94 1014.7
20260508083016 7 0.0 3.2 0.00 0.10 0.00 94 1014.6
20260508081516 7 0.0 3.2 0.00 0.10 0.00 94 1014.3
20260508080016 7 0.0 0.0 0.00 0.10 0.00 94 1014.3
20260508074516 7 0.0 0.0 0.00 0.10 0.00 94 1014.0
20260508073016 7 0.0 4.8 0.00 0.10 0.00 94 1014.0
20260508071516 7 0.0 0.0 0.00 0.10 0.00 93 1013.7
20260508070016 7 0.0 0.0 0.00 0.10 0.00 93 1013.7
20260508064516 7 0.0 0.0 0.00 0.10 0.00 93 1013.8
20260508063036 7 0.0 0.0 0.00 0.10 0.00 93 1013.6
20260508061516 7 0.0 0.0 0.00 0.10 0.00 93 1013.4
20260508060016 7 0.0 0.0 0.00 0.10 0.00 93 1013.2
20260508054516 7 0.0 0.0 0.00 0.10 0.00 92 1013.1
20260508053016 7 0.0 0.0 0.00 0.10 0.00 92 1013.1
20260508051556 8 0.0 0.0 0.00 0.10 0.00 92 1013.1
20260508050016 8 0.0 0.0 0.00 0.10 0.00 92 1013.1
20260508044515 8 0.0 0.0 0.00 0.10 0.00 92 1013.0
20260508043016 8 0.0 0.0 0.00 0.10 0.00 92 1012.9
20260508041516 8 0.0 1.6 0.00 0.10 0.00 92 1012.8
20260508040015 8 0.0 0.0 0.00 0.10 0.10 92 1012.6
20260508034516 9 0.0 0.0 0.00 0.10 0.10 92 1012.5
20260508033016 9 0.0 0.0 0.00 0.10 0.10 92 1012.6
20260508031516 9 0.0 0.0 0.00 0.10 0.10 92 1012.6
20260508030016 9 0.0 0.0 0.00 0.10 0.10 92 1012.4
20260508024516 9 0.0 0.0 0.00 0.10 0.10 92 1012.4
20260508023016 9 0.0 0.0 0.00 0.10 0.10 91 1012.3
20260508021517 9 0.0 0.0 0.00 0.10 0.10 91 1012.4
20260508020016 10 0.0 0.0 0.00 0.10 0.10 90 1012.2
20260508014516 10 0.0 0.0 0.00 0.10 0.10 90 1011.9
20260508013016 10 0.0 0.0 0.00 0.10 0.10 90 1012.1
20260508011516 10 0.0 0.0 0.00 0.10 0.10 90 1012.1